Location: Albany
(35.0170°S, 117.8920°E)
Time: 20:32:26
(UTC+08:00)

A-11 Canister half - Pass Details

Date: 23 January 2021
Orbit: 1525 x 1684 km, 47.3° (Epoch: 03 March)

Event Time Altitude Azimuth Distance (km) Brightness Sun altitude
Rises 23:56:53 0° 2° (N) 4,917 - -35.2°
Reaches altitude 10° 00:01:31 10° 20° (NNE) 3,940 - -35.3°
Maximum altitude 00:07:30 18° 57° (ENE) 3,372 - -35.4°
Exits shadow 00:10:44 15° 79° (ENE) 3,545 10.7 -35.4°
Drops below altitude 10° 00:13:28 10° 94° (E) 3,934 11.1 -35.4°
Sets 00:18:02 0° 111° (ESE) 4,907 11.9 -35.5°
